Year,Month,Day,Hour,Minute,Value (Times are PST for temperature in C)
2009,07,15,00,00,13.10
2009,07,15,00,01,13.00
2009,07,15,00,02,13.00
2009,07,15,00,03,13.00
2009,07,15,00,04,12.90
2009,07,15,00,05,12.90
2009,07,15,00,06,12.90
2009,07,15,00,07,12.80
2009,07,15,00,08,12.80
2009,07,15,00,09,12.80
2009,07,15,00,10,12.80
2009,07,15,00,11,12.80
2009,07,15,00,12,12.80
2009,07,15,00,13,12.80
2009,07,15,00,14,12.70
2009,07,15,00,15,12.70
2009,07,15,00,16,12.60
2009,07,15,00,17,12.60
2009,07,15,00,18,12.60
2009,07,15,00,19,12.60
2009,07,15,00,20,12.50
2009,07,15,00,21,12.50
2009,07,15,00,22,12.50
2009,07,15,00,23,12.40
2009,07,15,00,24,12.40
2009,07,15,00,25,12.30
2009,07,15,00,26,12.30
2009,07,15,00,27,12.30
2009,07,15,00,28,12.30
2009,07,15,00,29,12.30
2009,07,15,00,30,12.30
2009,07,15,00,31,12.20
2009,07,15,00,32,12.20
2009,07,15,00,33,12.20
2009,07,15,00,34,12.10
2009,07,15,00,35,12.10
2009,07,15,00,36,12.10
2009,07,15,00,37,12.10
2009,07,15,00,38,12.00
2009,07,15,00,39,12.00
2009,07,15,00,40,12.00
2009,07,15,00,41,11.90
2009,07,15,00,42,11.90
2009,07,15,00,43,11.90
2009,07,15,00,44,11.80
2009,07,15,00,45,11.80
2009,07,15,00,46,11.80
2009,07,15,00,47,11.80
2009,07,15,00,48,11.80
2009,07,15,00,49,11.70
2009,07,15,00,50,11.70
2009,07,15,00,51,11.70
2009,07,15,00,52,11.60
2009,07,15,00,53,11.60
2009,07,15,00,54,11.60
2009,07,15,00,55,11.60
2009,07,15,00,56,11.60
2009,07,15,00,57,11.60
2009,07,15,00,58,11.60
2009,07,15,00,59,11.60
2009,07,15,01,00,11.60
2009,07,15,01,01,11.60
2009,07,15,01,02,11.60
2009,07,15,01,03,11.60
2009,07,15,01,04,11.50
2009,07,15,01,05,11.40
2009,07,15,01,06,11.40
2009,07,15,01,07,11.40
2009,07,15,01,08,11.40
2009,07,15,01,09,11.40
2009,07,15,01,10,11.40
2009,07,15,01,11,11.40
2009,07,15,01,12,11.40
2009,07,15,01,13,11.40
2009,07,15,01,14,11.40
2009,07,15,01,15,11.30
2009,07,15,01,16,11.30
2009,07,15,01,17,11.30
2009,07,15,01,18,11.30
2009,07,15,01,19,11.30
2009,07,15,01,20,11.20
2009,07,15,01,21,11.20
2009,07,15,01,22,11.20
2009,07,15,01,23,11.20
2009,07,15,01,24,11.20
2009,07,15,01,25,11.20
2009,07,15,01,26,11.20
2009,07,15,01,27,11.20
2009,07,15,01,28,11.10
2009,07,15,01,29,11.10
2009,07,15,01,30,11.10
2009,07,15,01,31,11.10
2009,07,15,01,32,11.10
2009,07,15,01,33,11.10
2009,07,15,01,34,11.10
2009,07,15,01,35,11.10
2009,07,15,01,36,11.10
2009,07,15,01,37,11.00
2009,07,15,01,38,10.90
2009,07,15,01,39,10.90
2009,07,15,01,40,10.90
2009,07,15,01,41,10.90
2009,07,15,01,42,10.90
2009,07,15,01,43,10.90
2009,07,15,01,44,10.90
2009,07,15,01,45,10.90
2009,07,15,01,46,10.90
2009,07,15,01,47,10.90
2009,07,15,01,48,10.90
2009,07,15,01,49,10.90
2009,07,15,01,50,10.90
2009,07,15,01,51,10.90
2009,07,15,01,52,10.80
2009,07,15,01,53,10.80
2009,07,15,01,54,10.80
2009,07,15,01,55,10.80
2009,07,15,01,56,10.80
2009,07,15,01,57,10.80
2009,07,15,01,58,10.80
2009,07,15,01,59,10.80
2009,07,15,02,00,10.80
2009,07,15,02,01,10.80
2009,07,15,02,02,10.70
2009,07,15,02,03,10.70
2009,07,15,02,04,10.70
2009,07,15,02,05,10.70
2009,07,15,02,06,10.70
2009,07,15,02,07,10.70
2009,07,15,02,08,10.70
2009,07,15,02,09,10.80
2009,07,15,02,10,10.80
2009,07,15,02,11,10.80
2009,07,15,02,12,10.80
2009,07,15,02,13,10.80
2009,07,15,02,14,10.80
2009,07,15,02,15,10.80
2009,07,15,02,16,10.80
2009,07,15,02,17,10.70
2009,07,15,02,18,10.70
2009,07,15,02,19,10.70
2009,07,15,02,20,10.70
2009,07,15,02,21,10.70
2009,07,15,02,22,10.60
2009,07,15,02,23,10.60
2009,07,15,02,24,10.60
2009,07,15,02,25,10.60
2009,07,15,02,26,10.60
2009,07,15,02,27,10.60
2009,07,15,02,28,10.60
2009,07,15,02,29,10.60
2009,07,15,02,30,10.60
2009,07,15,02,31,10.60
2009,07,15,02,32,10.60
2009,07,15,02,33,10.60
2009,07,15,02,34,10.60
2009,07,15,02,35,10.60
2009,07,15,02,36,10.60
2009,07,15,02,37,10.60
2009,07,15,02,38,10.60
2009,07,15,02,39,10.60
2009,07,15,02,40,10.60
2009,07,15,02,41,10.60
2009,07,15,02,42,10.60
2009,07,15,02,43,10.60
2009,07,15,02,44,10.60
2009,07,15,02,45,10.60
2009,07,15,02,46,10.60
2009,07,15,02,47,10.50
2009,07,15,02,48,10.40
2009,07,15,02,49,10.40
2009,07,15,02,50,10.40
2009,07,15,02,51,10.40
2009,07,15,02,52,10.40
2009,07,15,02,53,10.40
2009,07,15,02,54,10.40
2009,07,15,02,55,10.40
2009,07,15,02,56,10.40
2009,07,15,02,57,10.40
2009,07,15,02,58,10.40
2009,07,15,02,59,10.40
2009,07,15,03,00,10.40
2009,07,15,03,01,10.40
2009,07,15,03,02,10.30
2009,07,15,03,03,10.30
2009,07,15,03,04,10.30
2009,07,15,03,05,10.30
2009,07,15,03,06,10.30
2009,07,15,03,07,10.30
2009,07,15,03,08,10.30
2009,07,15,03,09,10.30
2009,07,15,03,10,10.30
2009,07,15,03,11,10.30
2009,07,15,03,12,10.30
2009,07,15,03,13,10.30
2009,07,15,03,14,10.30
2009,07,15,03,15,10.30
2009,07,15,03,16,10.30
2009,07,15,03,17,10.30
2009,07,15,03,18,10.30
2009,07,15,03,19,10.30
2009,07,15,03,20,10.30
2009,07,15,03,21,10.30
2009,07,15,03,22,10.30
2009,07,15,03,23,10.30
2009,07,15,03,24,10.30
2009,07,15,03,25,10.30
2009,07,15,03,26,10.30
2009,07,15,03,27,10.30
2009,07,15,03,28,10.30
2009,07,15,03,29,10.30
2009,07,15,03,30,10.30
2009,07,15,03,31,10.30
2009,07,15,03,32,10.30
2009,07,15,03,33,10.30
2009,07,15,03,34,10.30
2009,07,15,03,35,10.30
2009,07,15,03,36,10.30
2009,07,15,03,37,10.30
2009,07,15,03,38,10.30
2009,07,15,03,39,10.30
2009,07,15,03,40,10.20
2009,07,15,03,41,10.20
2009,07,15,03,42,10.20
2009,07,15,03,43,10.20
2009,07,15,03,44,10.20
2009,07,15,03,45,10.20
2009,07,15,03,46,10.10
2009,07,15,03,47,10.10
2009,07,15,03,48,10.10
2009,07,15,03,49,10.10
2009,07,15,03,50,10.10
2009,07,15,03,51,10.10
2009,07,15,03,52,10.00
2009,07,15,03,53,9.90
2009,07,15,03,54,9.90
2009,07,15,03,55,9.90
2009,07,15,03,56,9.90
2009,07,15,03,57,9.90
2009,07,15,03,58,9.80
2009,07,15,03,59,9.80
2009,07,15,04,00,9.80
2009,07,15,04,01,9.80
2009,07,15,04,02,9.70
2009,07,15,04,03,9.70
2009,07,15,04,04,9.70
2009,07,15,04,05,9.70
2009,07,15,04,06,9.70
2009,07,15,04,07,9.70
2009,07,15,04,08,9.70
2009,07,15,04,09,9.70
2009,07,15,04,10,9.70
2009,07,15,04,11,9.70
2009,07,15,04,12,9.70
2009,07,15,04,13,9.70
2009,07,15,04,14,9.70
2009,07,15,04,15,9.70
2009,07,15,04,16,9.70
2009,07,15,04,17,9.70
2009,07,15,04,18,9.60
2009,07,15,04,19,9.60
2009,07,15,04,20,9.60
2009,07,15,04,21,9.60
2009,07,15,04,22,9.50
2009,07,15,04,23,9.50
2009,07,15,04,24,9.50
2009,07,15,04,25,9.50
2009,07,15,04,26,9.50
2009,07,15,04,27,9.40
2009,07,15,04,28,9.40
2009,07,15,04,29,9.40
2009,07,15,04,30,9.40
2009,07,15,04,31,9.40
2009,07,15,04,32,9.40
2009,07,15,04,33,9.40
2009,07,15,04,34,9.40
2009,07,15,04,35,9.50
2009,07,15,04,36,9.50
2009,07,15,04,37,9.50
2009,07,15,04,38,9.50
2009,07,15,04,39,9.50
2009,07,15,04,40,9.50
2009,07,15,04,41,9.50
2009,07,15,04,42,9.50
2009,07,15,04,43,9.50
2009,07,15,04,44,9.50
2009,07,15,04,45,9.50
2009,07,15,04,46,9.50
2009,07,15,04,47,9.50
2009,07,15,04,48,9.50
2009,07,15,04,49,9.50
2009,07,15,04,50,9.50
2009,07,15,04,51,9.60
2009,07,15,04,52,9.60
2009,07,15,04,53,9.60
2009,07,15,04,54,9.60
2009,07,15,04,55,9.60
2009,07,15,04,56,9.60
2009,07,15,04,57,9.70
2009,07,15,04,58,9.70
2009,07,15,04,59,9.70
2009,07,15,05,00,9.70
2009,07,15,05,01,9.70
2009,07,15,05,02,9.70
2009,07,15,05,03,9.70
2009,07,15,05,04,9.70
2009,07,15,05,05,9.60
2009,07,15,05,06,9.60
2009,07,15,05,07,9.60
2009,07,15,05,08,9.60
2009,07,15,05,09,9.60
2009,07,15,05,10,9.60
2009,07,15,05,11,9.60
2009,07,15,05,12,9.60
2009,07,15,05,13,9.50
2009,07,15,05,14,9.50
2009,07,15,05,15,9.50
2009,07,15,05,16,9.50
2009,07,15,05,17,9.50
2009,07,15,05,18,9.50
2009,07,15,05,19,9.50
2009,07,15,05,20,9.50
2009,07,15,05,21,9.50
2009,07,15,05,22,9.50
2009,07,15,05,23,9.40
2009,07,15,05,24,9.40
2009,07,15,05,25,9.40
2009,07,15,05,26,9.40
2009,07,15,05,27,9.40
2009,07,15,05,28,9.40
2009,07,15,05,29,9.30
2009,07,15,05,30,9.30
2009,07,15,05,31,9.30
2009,07,15,05,32,9.30
2009,07,15,05,33,9.30
2009,07,15,05,34,9.30
2009,07,15,05,35,9.30
2009,07,15,05,36,9.30
2009,07,15,05,37,9.30
2009,07,15,05,38,9.30
2009,07,15,05,39,9.30
2009,07,15,05,40,9.30
2009,07,15,05,41,9.30
2009,07,15,05,42,9.30
2009,07,15,05,43,9.30
2009,07,15,05,44,9.30
2009,07,15,05,45,9.30
2009,07,15,05,46,9.20
2009,07,15,05,47,9.20
2009,07,15,05,48,9.20
2009,07,15,05,49,9.20
2009,07,15,05,50,9.20
2009,07,15,05,51,9.20
2009,07,15,05,52,9.20
2009,07,15,05,53,9.30
2009,07,15,05,54,9.30
2009,07,15,05,55,9.30
2009,07,15,05,56,9.30
2009,07,15,05,57,9.30
2009,07,15,05,58,9.30
2009,07,15,05,59,9.30
2009,07,15,06,00,9.30
2009,07,15,06,01,9.30
2009,07,15,06,02,9.30
2009,07,15,06,03,9.30
2009,07,15,06,04,9.30
2009,07,15,06,05,9.30
2009,07,15,06,06,9.40
2009,07,15,06,07,9.40
2009,07,15,06,08,9.40
2009,07,15,06,09,9.40
2009,07,15,06,10,9.40
2009,07,15,06,11,9.40
2009,07,15,06,12,9.40
2009,07,15,06,13,9.40
2009,07,15,06,14,9.50
2009,07,15,06,15,9.50
2009,07,15,06,16,9.50
2009,07,15,06,17,9.50
2009,07,15,06,18,9.50
2009,07,15,06,19,9.50
2009,07,15,06,20,9.50
2009,07,15,06,21,9.50
2009,07,15,06,22,9.60
2009,07,15,06,23,9.60
2009,07,15,06,24,9.60
2009,07,15,06,25,9.60
2009,07,15,06,26,9.60
2009,07,15,06,27,9.60
2009,07,15,06,28,9.60
2009,07,15,06,29,9.70
2009,07,15,06,30,9.70
2009,07,15,06,31,9.70
2009,07,15,06,32,9.70
2009,07,15,06,33,9.70
2009,07,15,06,34,9.70
2009,07,15,06,35,9.70
2009,07,15,06,36,9.70
2009,07,15,06,37,9.70
2009,07,15,06,38,9.70
2009,07,15,06,39,9.70
2009,07,15,06,40,9.70
2009,07,15,06,41,9.80
2009,07,15,06,42,9.80
2009,07,15,06,43,9.90
2009,07,15,06,44,9.90
2009,07,15,06,45,9.90
2009,07,15,06,46,9.90
2009,07,15,06,47,9.90
2009,07,15,06,48,10.00
2009,07,15,06,49,10.10
2009,07,15,06,50,10.10
2009,07,15,06,51,10.10
2009,07,15,06,52,10.10
2009,07,15,06,53,10.20
2009,07,15,06,54,10.30
2009,07,15,06,55,10.40
2009,07,15,06,56,10.40
2009,07,15,06,57,10.60
2009,07,15,06,58,10.60
2009,07,15,06,59,10.70
2009,07,15,07,00,10.70
2009,07,15,07,01,10.80
2009,07,15,07,02,10.80
2009,07,15,07,03,10.90
2009,07,15,07,04,10.90
2009,07,15,07,05,10.90
2009,07,15,07,06,10.90
2009,07,15,07,07,11.10
2009,07,15,07,08,11.10
2009,07,15,07,09,11.10
2009,07,15,07,10,11.20
2009,07,15,07,11,11.30
2009,07,15,07,12,11.30
2009,07,15,07,13,11.30
2009,07,15,07,14,11.40
2009,07,15,07,15,11.40
2009,07,15,07,16,11.50
2009,07,15,07,17,11.60
2009,07,15,07,18,11.60
2009,07,15,07,19,11.70
2009,07,15,07,20,11.70
2009,07,15,07,21,11.80
2009,07,15,07,22,11.90
2009,07,15,07,23,11.90
2009,07,15,07,24,12.00
2009,07,15,07,25,12.10
2009,07,15,07,26,12.10
2009,07,15,07,27,12.20
2009,07,15,07,28,12.30
2009,07,15,07,29,12.40
2009,07,15,07,30,12.50
2009,07,15,07,31,12.60
2009,07,15,07,32,12.60
2009,07,15,07,33,12.70
2009,07,15,07,34,12.70
2009,07,15,07,35,12.80
2009,07,15,07,36,12.80
2009,07,15,07,37,12.90
2009,07,15,07,38,13.00
2009,07,15,07,39,13.10
2009,07,15,07,40,13.20
2009,07,15,07,41,13.30
2009,07,15,07,42,13.50
2009,07,15,07,43,13.60
2009,07,15,07,44,13.70
2009,07,15,07,45,13.80
2009,07,15,07,46,13.90
2009,07,15,07,47,14.00
2009,07,15,07,48,14.20
2009,07,15,07,49,14.30
2009,07,15,07,50,14.40
2009,07,15,07,51,14.50
2009,07,15,07,52,14.60
2009,07,15,07,53,14.70
2009,07,15,07,54,14.80
2009,07,15,07,55,14.80
2009,07,15,07,56,14.80
2009,07,15,07,57,14.80
2009,07,15,07,58,14.80
2009,07,15,07,59,14.90
2009,07,15,08,00,15.00
2009,07,15,08,01,15.00
2009,07,15,08,02,15.10
2009,07,15,08,03,15.10
2009,07,15,08,04,15.10
2009,07,15,08,05,15.10
2009,07,15,08,06,15.00
2009,07,15,08,07,15.00
2009,07,15,08,08,15.00
2009,07,15,08,09,15.00
2009,07,15,08,10,15.10
2009,07,15,08,11,15.10
2009,07,15,08,12,15.20
2009,07,15,08,13,15.20
2009,07,15,08,14,15.20
2009,07,15,08,15,15.20
2009,07,15,08,16,15.20
2009,07,15,08,17,15.20
2009,07,15,08,18,15.30
2009,07,15,08,19,15.30
2009,07,15,08,20,15.40
2009,07,15,08,21,15.40
2009,07,15,08,22,15.40
2009,07,15,08,23,15.40
2009,07,15,08,24,15.40
2009,07,15,08,25,15.40
2009,07,15,08,26,15.30
2009,07,15,08,27,15.30
2009,07,15,08,28,15.30
2009,07,15,08,29,15.20
2009,07,15,08,30,14.90
2009,07,15,08,31,14.70
2009,07,15,08,32,14.60
2009,07,15,08,33,14.50
2009,07,15,08,34,14.40
2009,07,15,08,35,14.30
2009,07,15,08,36,14.20
2009,07,15,08,37,14.20
2009,07,15,08,38,14.10
2009,07,15,08,39,14.10
2009,07,15,08,40,14.10
2009,07,15,08,41,14.10
2009,07,15,08,42,14.10
2009,07,15,08,43,14.10
2009,07,15,08,44,14.10
2009,07,15,08,45,14.20
2009,07,15,08,46,14.20
2009,07,15,08,47,14.20
2009,07,15,08,48,14.20
2009,07,15,08,49,14.20
2009,07,15,08,50,14.20
2009,07,15,08,51,14.20
2009,07,15,08,52,14.20
2009,07,15,08,53,14.20
2009,07,15,08,54,14.30
2009,07,15,08,55,14.30
2009,07,15,08,56,14.30
2009,07,15,08,57,14.40
2009,07,15,08,58,14.40
2009,07,15,08,59,14.50
2009,07,15,09,00,14.50
2009,07,15,09,01,14.50
2009,07,15,09,02,14.50
2009,07,15,09,03,14.60
2009,07,15,09,04,14.60
2009,07,15,09,05,14.60
2009,07,15,09,06,14.60
2009,07,15,09,07,14.60
2009,07,15,09,08,14.60
2009,07,15,09,09,14.70
2009,07,15,09,10,14.70
2009,07,15,09,11,14.80
2009,07,15,09,12,14.80
2009,07,15,09,13,14.80
2009,07,15,09,14,14.90
2009,07,15,09,15,14.90
2009,07,15,09,16,15.00
2009,07,15,09,17,15.00
2009,07,15,09,18,15.10
2009,07,15,09,19,15.20
2009,07,15,09,20,15.20
2009,07,15,09,21,15.20
2009,07,15,09,22,15.30
2009,07,15,09,23,15.30
2009,07,15,09,24,15.20
2009,07,15,09,25,15.20
2009,07,15,09,26,15.30
2009,07,15,09,27,15.30
2009,07,15,09,28,15.40
2009,07,15,09,29,15.50
2009,07,15,09,30,15.60
2009,07,15,09,31,15.60
2009,07,15,09,32,15.70
2009,07,15,09,33,15.80
2009,07,15,09,34,15.80
2009,07,15,09,35,15.80
2009,07,15,09,36,15.80
2009,07,15,09,37,15.80
2009,07,15,09,38,15.80
2009,07,15,09,39,15.80
2009,07,15,09,40,15.70
2009,07,15,09,41,15.60
2009,07,15,09,42,15.60
2009,07,15,09,43,15.50
2009,07,15,09,44,15.50
2009,07,15,09,45,15.50
2009,07,15,09,46,15.40
2009,07,15,09,47,15.40
2009,07,15,09,48,15.30
2009,07,15,09,49,15.30
2009,07,15,09,50,15.30
2009,07,15,09,51,15.20
2009,07,15,09,52,15.10
2009,07,15,09,53,15.00
2009,07,15,09,54,14.80
2009,07,15,09,55,14.70
2009,07,15,09,56,14.50
2009,07,15,09,57,14.40
2009,07,15,09,58,14.30
2009,07,15,09,59,14.20
2009,07,15,10,00,14.00
2009,07,15,10,01,13.90
2009,07,15,10,02,13.80
2009,07,15,10,03,13.70
2009,07,15,10,04,13.70
2009,07,15,10,05,13.60
2009,07,15,10,06,13.50
2009,07,15,10,07,13.50
2009,07,15,10,08,13.40
2009,07,15,10,09,13.40
2009,07,15,10,10,13.30
2009,07,15,10,11,13.30
2009,07,15,10,12,13.30
2009,07,15,10,13,13.30
2009,07,15,10,14,13.30
2009,07,15,10,15,13.40
2009,07,15,10,16,13.40
2009,07,15,10,17,13.50
2009,07,15,10,18,13.50
2009,07,15,10,19,13.50
2009,07,15,10,20,13.60
2009,07,15,10,21,13.70
2009,07,15,10,22,13.70
2009,07,15,10,23,13.70
2009,07,15,10,24,13.70
2009,07,15,10,25,13.70
2009,07,15,10,26,13.70
2009,07,15,10,27,13.60
2009,07,15,10,28,13.60
2009,07,15,10,29,13.60
2009,07,15,10,30,13.70
2009,07,15,10,31,13.90
2009,07,15,10,32,14.00
2009,07,15,10,33,14.00
2009,07,15,10,34,14.00
2009,07,15,10,35,14.00
2009,07,15,10,36,13.80
2009,07,15,10,37,13.80
2009,07,15,10,38,13.80
2009,07,15,10,39,13.70
2009,07,15,10,40,13.70
2009,07,15,10,41,13.70
2009,07,15,10,42,13.80
2009,07,15,10,43,13.90
2009,07,15,10,44,14.00
2009,07,15,10,45,14.00
2009,07,15,10,46,14.00
2009,07,15,10,47,14.00
2009,07,15,10,48,14.00
2009,07,15,10,49,14.00
2009,07,15,10,50,14.10
2009,07,15,10,51,14.10
2009,07,15,10,52,14.00
2009,07,15,10,53,14.10
2009,07,15,10,54,14.10
2009,07,15,10,55,14.10
2009,07,15,10,56,14.10
2009,07,15,10,57,14.10
2009,07,15,10,58,14.20
2009,07,15,10,59,14.20
2009,07,15,11,00,14.30
2009,07,15,11,01,14.40
2009,07,15,11,02,14.50
2009,07,15,11,03,14.50
2009,07,15,11,04,14.50
2009,07,15,11,05,14.50
2009,07,15,11,06,14.50
2009,07,15,11,07,14.50
2009,07,15,11,08,14.40
2009,07,15,11,09,14.40
2009,07,15,11,10,14.50
2009,07,15,11,11,14.60
2009,07,15,11,12,14.60
2009,07,15,11,13,14.60
2009,07,15,11,14,14.70
2009,07,15,11,15,14.70
2009,07,15,11,16,14.60
2009,07,15,11,17,14.70
2009,07,15,11,18,14.80
2009,07,15,11,19,14.90
2009,07,15,11,20,15.10
2009,07,15,11,21,15.10
2009,07,15,11,22,15.10
2009,07,15,11,23,15.10
2009,07,15,11,24,15.20
2009,07,15,11,25,15.20
2009,07,15,11,26,15.30
2009,07,15,11,27,15.40
2009,07,15,11,28,15.50
2009,07,15,11,29,15.70
2009,07,15,11,30,15.80
2009,07,15,11,31,15.90
2009,07,15,11,32,16.10
2009,07,15,11,33,16.20
2009,07,15,11,34,16.20
2009,07,15,11,35,16.10
2009,07,15,11,36,16.10
2009,07,15,11,37,16.00
2009,07,15,11,38,15.90
2009,07,15,11,39,15.80
2009,07,15,11,40,15.80
2009,07,15,11,41,15.80
2009,07,15,11,42,15.70
2009,07,15,11,43,15.70
2009,07,15,11,44,15.80
2009,07,15,11,45,15.80
2009,07,15,11,46,15.70
2009,07,15,11,47,15.60
2009,07,15,11,48,15.60
2009,07,15,11,49,15.60
2009,07,15,11,50,15.70
2009,07,15,11,51,15.70
2009,07,15,11,52,15.70
2009,07,15,11,53,15.80
2009,07,15,11,54,15.90
2009,07,15,11,55,16.10
2009,07,15,11,56,16.10
2009,07,15,11,57,16.10
2009,07,15,11,58,16.10
2009,07,15,11,59,16.10
2009,07,15,12,00,16.10
2009,07,15,12,01,16.10
2009,07,15,12,02,16.10
2009,07,15,12,03,16.10
2009,07,15,12,04,16.00
2009,07,15,12,05,16.00
2009,07,15,12,06,16.10
2009,07,15,12,07,16.10
2009,07,15,12,08,16.10
2009,07,15,12,09,16.20
2009,07,15,12,10,16.20
2009,07,15,12,11,16.10
2009,07,15,12,12,16.20
2009,07,15,12,13,16.30
2009,07,15,12,14,16.40
2009,07,15,12,15,16.40
2009,07,15,12,16,16.40
2009,07,15,12,17,16.40
2009,07,15,12,18,16.50
2009,07,15,12,19,16.60
2009,07,15,12,20,16.60
2009,07,15,12,21,16.70
2009,07,15,12,22,16.70
2009,07,15,12,23,16.70
2009,07,15,12,24,16.70
2009,07,15,12,25,16.80
2009,07,15,12,26,16.80
2009,07,15,12,27,16.70
2009,07,15,12,28,16.70
2009,07,15,12,29,16.70
2009,07,15,12,30,16.70
2009,07,15,12,31,16.60
2009,07,15,12,32,16.50
2009,07,15,12,33,16.40
2009,07,15,12,34,16.40
2009,07,15,12,35,16.40
2009,07,15,12,36,16.40
2009,07,15,12,37,16.50
2009,07,15,12,38,16.40
2009,07,15,12,39,16.60
2009,07,15,12,40,16.70
2009,07,15,12,41,16.70
2009,07,15,12,42,16.70
2009,07,15,12,43,16.70
2009,07,15,12,44,16.70
2009,07,15,12,45,16.70
2009,07,15,12,46,16.70
2009,07,15,12,47,16.80
2009,07,15,12,48,16.90
2009,07,15,12,49,16.90
2009,07,15,12,50,16.90
2009,07,15,12,51,17.10
2009,07,15,12,52,17.30
2009,07,15,12,53,17.30
2009,07,15,12,54,17.30
2009,07,15,12,55,17.30
2009,07,15,12,56,17.30
2009,07,15,12,57,17.20
2009,07,15,12,58,17.10
2009,07,15,12,59,17.10
2009,07,15,13,00,17.10
2009,07,15,13,01,17.20
2009,07,15,13,02,17.20
2009,07,15,13,03,17.30
2009,07,15,13,04,17.40
2009,07,15,13,05,17.40
2009,07,15,13,06,17.40
2009,07,15,13,07,17.50
2009,07,15,13,08,17.70
2009,07,15,13,09,17.80
2009,07,15,13,10,17.90
2009,07,15,13,11,17.90
2009,07,15,13,12,17.90
2009,07,15,13,13,17.90
2009,07,15,13,14,17.90
2009,07,15,13,15,17.90
2009,07,15,13,16,17.90
2009,07,15,13,17,17.90
2009,07,15,13,18,17.90
2009,07,15,13,19,18.00
2009,07,15,13,20,18.10
2009,07,15,13,21,18.20
2009,07,15,13,22,18.20
2009,07,15,13,23,18.20
2009,07,15,13,24,18.10
2009,07,15,13,25,18.10
2009,07,15,13,26,18.10
2009,07,15,13,27,18.20
2009,07,15,13,28,18.20
2009,07,15,13,29,18.20
2009,07,15,13,30,18.20
2009,07,15,13,31,18.40
2009,07,15,13,32,18.40
2009,07,15,13,33,18.40
2009,07,15,13,34,18.40
2009,07,15,13,35,18.40
2009,07,15,13,36,18.30
2009,07,15,13,37,18.30
2009,07,15,13,38,18.30
2009,07,15,13,39,18.20
2009,07,15,13,40,18.20
2009,07,15,13,41,18.20
2009,07,15,13,42,18.20
2009,07,15,13,43,18.20
2009,07,15,13,44,18.20
2009,07,15,13,45,18.20
2009,07,15,13,46,18.20
2009,07,15,13,47,18.20
2009,07,15,13,48,18.40
2009,07,15,13,49,18.40
2009,07,15,13,50,18.40
2009,07,15,13,51,18.50
2009,07,15,13,52,18.70
2009,07,15,13,53,18.90
2009,07,15,13,54,19.10
2009,07,15,13,55,19.10
2009,07,15,13,56,19.10
2009,07,15,13,57,19.00
2009,07,15,13,58,18.80
2009,07,15,13,59,18.70
2009,07,15,14,00,18.70
2009,07,15,14,01,18.60
2009,07,15,14,02,18.60
2009,07,15,14,03,18.60
2009,07,15,14,04,18.70
2009,07,15,14,05,18.70
2009,07,15,14,06,18.80
2009,07,15,14,07,18.90
2009,07,15,14,08,19.00
2009,07,15,14,09,19.10
2009,07,15,14,10,19.20
2009,07,15,14,11,19.20
2009,07,15,14,12,19.40
2009,07,15,14,13,19.40
2009,07,15,14,14,19.40
2009,07,15,14,15,19.40
2009,07,15,14,16,19.40
2009,07,15,14,17,19.40
2009,07,15,14,18,19.40
2009,07,15,14,19,19.40
2009,07,15,14,20,19.40
2009,07,15,14,21,19.40
2009,07,15,14,22,19.50
2009,07,15,14,23,19.50
2009,07,15,14,24,19.40
2009,07,15,14,25,19.40
2009,07,15,14,26,19.20
2009,07,15,14,27,19.20
2009,07,15,14,28,19.20
2009,07,15,14,29,19.30
2009,07,15,14,30,19.30
2009,07,15,14,31,19.40
2009,07,15,14,32,19.50
2009,07,15,14,33,19.50
2009,07,15,14,34,19.50
2009,07,15,14,35,19.50
2009,07,15,14,36,19.50
2009,07,15,14,37,19.60
2009,07,15,14,38,19.60
2009,07,15,14,39,19.50
2009,07,15,14,40,19.50
2009,07,15,14,41,19.40
2009,07,15,14,42,19.40
2009,07,15,14,43,19.40
2009,07,15,14,44,19.60
2009,07,15,14,45,19.60
2009,07,15,14,46,19.70
2009,07,15,14,47,19.80
2009,07,15,14,48,19.80
2009,07,15,14,49,19.70
2009,07,15,14,50,19.70
2009,07,15,14,51,19.70
2009,07,15,14,52,19.70
2009,07,15,14,53,19.70
2009,07,15,14,54,19.80
2009,07,15,14,55,19.80
2009,07,15,14,56,19.80
2009,07,15,14,57,19.80
2009,07,15,14,58,19.80
2009,07,15,14,59,19.80
2009,07,15,15,00,19.80
2009,07,15,15,01,19.80
2009,07,15,15,02,19.80
2009,07,15,15,03,19.80
2009,07,15,15,04,19.90
2009,07,15,15,05,19.90
2009,07,15,15,06,19.90
2009,07,15,15,07,19.90
2009,07,15,15,08,19.90
2009,07,15,15,09,19.80
2009,07,15,15,10,19.70
2009,07,15,15,11,19.60
2009,07,15,15,12,19.70
2009,07,15,15,13,19.60
2009,07,15,15,14,19.50
2009,07,15,15,15,19.50
2009,07,15,15,16,19.50
2009,07,15,15,17,19.50
2009,07,15,15,18,19.60
2009,07,15,15,19,19.60
2009,07,15,15,20,19.70
2009,07,15,15,21,19.80
2009,07,15,15,22,19.70
2009,07,15,15,23,19.70
2009,07,15,15,24,19.70
2009,07,15,15,25,19.70
2009,07,15,15,26,19.70
2009,07,15,15,27,19.70
2009,07,15,15,28,19.80
2009,07,15,15,29,19.80
2009,07,15,15,30,19.90
2009,07,15,15,31,19.90
2009,07,15,15,32,20.00
2009,07,15,15,33,19.90
2009,07,15,15,34,19.90
2009,07,15,15,35,19.90
2009,07,15,15,36,19.90
2009,07,15,15,37,20.00
2009,07,15,15,38,20.10
2009,07,15,15,39,20.10
2009,07,15,15,40,20.20
2009,07,15,15,41,20.20
2009,07,15,15,42,20.20
2009,07,15,15,43,20.10
2009,07,15,15,44,20.10
2009,07,15,15,45,20.10
2009,07,15,15,46,20.10
2009,07,15,15,47,20.20
2009,07,15,15,48,20.20
2009,07,15,15,49,20.20
2009,07,15,15,50,20.20
2009,07,15,15,51,20.00
2009,07,15,15,52,19.90
2009,07,15,15,53,19.80
2009,07,15,15,54,19.70
2009,07,15,15,55,19.60
2009,07,15,15,56,19.60
2009,07,15,15,57,19.60
2009,07,15,15,58,19.60
2009,07,15,15,59,19.60
2009,07,15,16,00,19.50
2009,07,15,16,01,19.60
2009,07,15,16,02,19.80
2009,07,15,16,03,19.80
2009,07,15,16,04,19.90
2009,07,15,16,05,20.10
2009,07,15,16,06,20.10
2009,07,15,16,07,20.20
2009,07,15,16,08,20.20
2009,07,15,16,09,20.20
2009,07,15,16,10,20.20
2009,07,15,16,11,20.20
2009,07,15,16,12,20.20
2009,07,15,16,13,20.10
2009,07,15,16,14,20.20
2009,07,15,16,15,20.20
2009,07,15,16,16,20.20
2009,07,15,16,17,20.20
2009,07,15,16,18,20.30
2009,07,15,16,19,20.40
2009,07,15,16,20,20.40
2009,07,15,16,21,20.50
2009,07,15,16,22,20.70
2009,07,15,16,23,20.70
2009,07,15,16,24,20.80
2009,07,15,16,25,20.80
2009,07,15,16,26,20.80
2009,07,15,16,27,20.90
2009,07,15,16,28,20.90
2009,07,15,16,29,20.80
2009,07,15,16,30,20.70
2009,07,15,16,31,20.50
2009,07,15,16,32,20.40
2009,07,15,16,33,20.40
2009,07,15,16,34,20.30
2009,07,15,16,35,20.20
2009,07,15,16,36,20.10
2009,07,15,16,37,19.90
2009,07,15,16,38,19.90
2009,07,15,16,39,19.80
2009,07,15,16,40,19.80
2009,07,15,16,41,19.70
2009,07,15,16,42,19.70
2009,07,15,16,43,19.60
2009,07,15,16,44,19.70
2009,07,15,16,45,19.80
2009,07,15,16,46,19.90
2009,07,15,16,47,20.00
2009,07,15,16,48,20.20
2009,07,15,16,49,20.20
2009,07,15,16,50,20.30
2009,07,15,16,51,20.30
2009,07,15,16,52,20.40
2009,07,15,16,53,20.50
2009,07,15,16,54,20.60
2009,07,15,16,55,20.80
2009,07,15,16,56,21.00
2009,07,15,16,57,20.90
2009,07,15,16,58,20.80
2009,07,15,16,59,20.80
2009,07,15,17,00,20.70
2009,07,15,17,01,20.50
2009,07,15,17,02,20.30
2009,07,15,17,03,20.20
2009,07,15,17,04,20.20
2009,07,15,17,05,20.20
2009,07,15,17,06,20.20
2009,07,15,17,07,20.20
2009,07,15,17,08,20.30
2009,07,15,17,09,20.40
2009,07,15,17,10,20.50
2009,07,15,17,11,20.70
2009,07,15,17,12,20.70
2009,07,15,17,13,20.70
2009,07,15,17,14,20.70
2009,07,15,17,15,20.80
2009,07,15,17,16,21.00
2009,07,15,17,17,21.00
2009,07,15,17,18,21.10
2009,07,15,17,19,21.30
2009,07,15,17,20,21.40
2009,07,15,17,21,21.50
2009,07,15,17,22,21.60
2009,07,15,17,23,21.60
2009,07,15,17,24,21.60
2009,07,15,17,25,21.60
2009,07,15,17,26,21.70
2009,07,15,17,27,21.80